Location: Nitra
(0.0000°N, 18.0833°E)
Time: 08:59:32
(UTC+02:00)

KAITUO 1B - Visible Passes

Search period start: 10 June 2023 00:00
Search period end: 20 June 2023 00:00
Orbit: 428 x 444 km, 97.4° (Epoch: 09 June)

Date Brightness Start Highest point End Pass type
(mag) Time Alt. Az. Time Alt. Az. Time Alt. Az.
10 Jun ? 19:19:18 10° SSE 19:22:36 64° ENE 19:25:52 10° N visible
11 Jun ? 20:14:02 10° SW 20:15:38 13° WSW 20:17:14 10° WNW visible
12 Jun ? 19:33:08 10° S 19:36:26 67° W 19:39:42 10° NNW visible
14 Jun ? 19:46:55 10° S 19:50:00 36° W 19:53:03 10° NNW visible
15 Jun ? 19:07:32 10° SSE 19:10:35 35° E 19:13:36 10° NNE visible
16 Jun ? 20:00:43 10° SSW 20:03:17 21° WSW 20:05:51 10° NW visible
17 Jun ? 19:20:29 10° SSE 19:23:45 64° E 19:27:00 10° N visible
18 Jun ? 20:14:43 10° SW 20:16:18 13° WSW 20:17:53 10° WNW visible
19 Jun ? 19:33:22 10° S 19:36:39 69° W 19:39:54 10° NNW visible
